Temperature
9 11 11 11 11 12 12 12 12 12 10 10 11 11 12 11 10 10 10 9 9 9 8 8 8 9 9 9 9 9 8 8 8 8 8 8 8 8 7 7 7 7 7 7
10 10 11 10 10 10 11 11 11 11 9 10 10 10 11 11 10 10 10 9 9 8 8 8 8 8 8 8 8 8 8 8 8 8 8 7 7 7 7 7 7 7 7 7
10 10 9 9 9 10 10 10 11 10 9 9 9 11 12 11 10 9 8 8 8 8 7 7 7 7 8 8 8 8 8 8 8 7 7 7 7 7 7 7 7 7 6 6
9 9 9 9 9 10 10 10 9 9 9 10 10 11 13 12 10 10 9 8 8 7 7 7 7 7 7 7 7 7 7 7 7 7 7 7 6 6 6 6 6 6 6 6
9 8 8 9 9 9 9 8 8 8 9 9 9 9 12 11 11 11 10 9 8 7 7 7 7 7 7 7 7 7 7 7 7 6 6 6 6 6 6 6 6 5 5 5
8 8 8 8 8 8 7 8 8 8 8 9 10 10 12 12 11 11 10 9 8 7 6 6 6 6 6 6 6 6 6 6 6 6 6 6 6 5 5 5 5 5 5 5
8 7 7 7 7 7 8 8 9 9 9 10 9 9 11 12 10 10 10 9 7 7 6 6 6 6 6 6 6 6 6 6 6 6 5 5 5 5 5 5 4 5 4 4
8 8 7 7 8 8 8 9 9 10 11 11 8 9 12 10 9 8 8 7 7 6 6 6 6 6 6 6 5 6 5 5 5 5 5 5 5 5 4 4 4 4 4 4
8 8 6 6 6 8 7 8 8 8 7 8 10 10 10 9 9 8 8 7 7 6 6 5 5 5 5 5 5 5 5 5 5 5 5 5 4 4 4 4 4 4 4 4
8 7 6 6 6 6 7 7 7 7 8 10 11 10 11 10 9 9 8 7 7 6 5 5 5 5 5 5 4 5 5 5 5 4 4 4 4 4 4 4 4 3 3 3
6 6 6 6 6 7 6 6 7 7 8 9 10 12 10 10 9 8 8 7 6 6 5 5 5 5 4 4 4 4 4 4 4 4 4 4 4 4 4 3 3 3 3 3
6 6 6 6 6 6 6 7 7 7 7 7 9 10 9 8 8 7 7 6 5 5 5 5 5 5 4 4 4 4 4 4 4 4 4 4 4 4 3 3 3 3 3 2
5 5 6 6 5 4 5 5 5 6 6 7 8 10 8 7 7 7 6 6 5 5 5 5 4 4 4 4 4 3 3 3 3 3 3 3 3 3 3 3 3 3 2 2
5 4 6 7 8 6 5 4 4 5 6 7 7 9 9 8 8 7 6 6 5 5 4 4 4 4 4 4 3 3 3 3 3 3 3 3 3 3 3 3 3 2 2 2
5 5 4 5 5 5 5 5 4 4 6 7 8 7 8 8 8 7 6 5 5 5 4 4 4 3 3 3 3 3 3 2 2 3 3 3 3 3 3 2 2 2 2 2
4 4 4 4 4 4 4 5 5 5 5 6 6 6 8 7 6 6 5 5 4 4 4 4 3 3 3 3 3 2 2 2 2 2 2 2 2 2 2 2 2 2 2 2
3 3 4 5 3 3 5 5 4 4 5 5 6 7 7 6 6 5 5 4 4 4 4 3 3 3 3 3 2 2 2 2 2 2 2 2 2 2 2 2 2 2 1 1
2 2 3 4 3 4 7 5 5 5 5 5 5 6 6 5 5 4 4 4 4 3 3 3 3 3 3 2 2 2 2 1 1 1 1 2 2 2 2 1 1 1 1 1
3 2 3 3 4 6 6 4 4 4 5 5 4 5 4 3 3 4 4 4 3 3 3 3 3 3 2 2 2 1 1 1 1 1 1 1 1 1 1 1 1 1 0 0
1 2 3 3 4 5 6 4 3 4 5 5 4 4 3 3 4 6 3 3 3 3 3 3 2 2 2 1 1 1 1 1 1 1 1 1 1 1 1 1 0 0 -0 -0
1 1 2 3 4 5 5 2 3 5 6 4 3 3 3 3 4 3 3 3 2 2 2 2 2 2 1 1 1 1 1 1 0 0 0 0 0 0 0 0 -0 -0 -1 -1
2 2 2 2 3 5 3 2 4 5 4 3 3 3 2 2 2 2 2 2 2 2 2 1 1 1 1 1 0 0 0 0 0 -0 -0 -0 -0 -0 -0 -0 -1 -1 -1 -1
2 3 3 3 5 4 3 3 4 3 3 3 3 3 2 2 2 2 2 1 1 1 1 1 1 0 0 0 0 -0 -0 -0 -0 -0 -0 -1 -1 -1 -1 -1 -1 -1 -1 -2
2 1 2 2 3 3 2 2 3 3 3 3 3 2 2 2 1 1 1 1 1 1 1 0 0 -0 -0 -0 -0 -0 -0 -1 -1 -1 -1 -1 -1 -1 -1 -1 -1 -1 -2 -2
3 1 1 1 2 2 2 2 3 3 3 3 2 2 2 2 1 1 1 1 0 0 0 -0 -0 -0 -0 -0 -1 -1 -1 -1 -1 -1 -1 -1 -1 -1 -1 -2 -2 -2 -2 -2
1 1 1 3 3 3 3 3 3 2 2 2 2 2 1 1 1 0 0 0 0 0 -0 -1 -1 -1 -1 -1 -1 -1 -1 -1 -1 -1 -1 -1 -2 -2 -2 -2 -2 -2 -2 -2
Wind_Speed
4 6 8 10 11 7 6 8 9 7 4 6 10 12 12 10 10 10 9 8 8 8 6 5 5 4 5 5 5 6 5 5 4 4 3 3 3 3 3 3 4 4 4 4
5 9 9 7 7 7 8 9 9 6 3 5 9 13 13 11 10 10 9 9 8 7 5 5 4 4 5 5 6 6 6 6 5 4 4 3 3 3 3 3 3 4 4 4
9 4 5 7 7 8 9 10 9 6 4 4 6 10 9 7 7 7 7 7 7 7 6 5 5 5 4 5 5 6 6 6 6 5 3 2 2 2 2 3 3 4 4 4
6 5 6 7 8 8 8 6 6 5 5 4 4 7 7 7 6 7 7 7 6 5 5 4 4 4 5 5 5 6 6 6 6 6 5 6 4 4 4 3 3 3 4 4
5 5 7 8 6 7 4 2 3 4 6 6 6 7 7 5 7 7 6 6 5 5 4 4 4 4 4 4 4 5 6 6 6 6 7 7 5 5 3 3 4 4 3 4
3 3 4 4 2 4 5 3 2 2 4 7 8 8 7 5 7 5 4 3 4 4 4 3 3 3 3 3 4 4 5 6 6 6 7 7 7 5 5 5 4 4 3 3
3 3 3 4 4 5 5 4 3 4 5 6 3 7 8 4 3 4 3 3 2 3 3 4 4 4 3 3 4 5 6 6 6 6 7 7 7 6 7 6 5 5 4 4
5 5 6 5 5 6 8 6 5 4 5 3 4 8 5 1 2 3 3 3 3 3 3 4 4 4 4 4 4 5 6 6 6 6 6 6 7 5 5 6 5 5 5 5
6 4 2 3 2 5 6 6 3 2 2 5 6 6 7 4 4 4 3 3 3 3 3 4 4 4 4 4 4 5 6 6 6 6 6 6 6 6 6 6 6 5 5 4
4 3 3 2 3 1 3 4 4 5 4 6 6 7 5 5 5 4 4 4 3 3 4 4 4 4 4 3 4 4 6 6 6 6 6 5 6 7 6 6 6 6 6 5
3 3 3 4 8 9 6 6 5 4 4 5 6 5 2 4 4 4 4 4 4 4 4 4 4 3 3 3 3 4 4 5 5 6 6 6 6 6 6 6 7 6 6 6
4 3 4 5 2 3 7 8 8 6 6 5 6 6 1 2 2 3 4 4 4 4 4 4 3 3 3 3 3 3 4 5 5 5 5 6 5 5 6 6 6 6 6 6
5 4 3 3 4 5 6 7 8 5 4 7 8 7 2 2 3 4 5 5 4 4 4 4 4 4 4 4 4 4 4 4 4 4 5 5 6 6 6 6 6 6 6 6
3 5 7 9 5 5 7 9 10 9 8 10 13 14 10 8 8 8 7 7 6 6 6 5 5 5 5 4 4 4 4 4 4 4 5 5 6 6 6 6 6 6 6 7
3 5 7 9 8 6 9 12 14 15 14 13 14 15 16 13 11 10 9 9 8 8 7 7 6 5 5 5 5 4 4 3 4 4 5 5 5 5 5 6 6 6 6 7
4 4 5 7 7 8 10 14 16 17 17 18 18 20 15 13 11 11 10 9 9 9 8 7 7 6 6 6 5 5 4 4 4 5 5 5 5 5 5 6 6 6 6 6
5 5 5 7 6 6 12 14 16 13 14 14 18 16 10 10 11 11 10 10 10 9 8 8 8 7 7 6 5 5 4 4 4 5 5 4 5 5 6 6 6 6 6 6
7 6 4 4 4 11 7 3 10 13 14 15 14 13 11 11 10 9 9 10 9 8 8 8 7 7 6 5 5 4 4 4 4 5 5 5 5 5 5 6 6 6 6 6
7 7 4 5 8 11 8 5 6 9 10 11 14 13 10 7 6 8 7 7 7 7 7 7 6 6 5 5 4 4 4 4 4 5 5 5 5 6 6 6 6 6 6 6
4 5 5 5 7 8 4 1 2 4 8 6 8 10 7 3 5 5 2 4 6 6 5 5 4 4 4 4 4 4 4 4 5 5 5 5 5 6 6 6 6 5 5 6
5 5 8 9 9 9 2 3 5 6 4 1 5 6 6 6 6 4 3 4 5 5 4 4 4 4 4 3 4 5 5 5 5 4 4 5 5 6 6 5 5 5 5 5
8 7 8 7 9 8 5 6 7 5 2 2 3 5 6 6 6 5 5 5 4 4 3 3 3 3 3 3 4 5 5 5 4 4 4 5 5 4 4 4 4 4 5 5
9 9 6 9 9 4 7 8 7 5 5 4 4 5 5 6 6 6 6 6 5 4 3 3 3 3 3 4 4 5 5 4 4 4 4 4 4 4 4 4 4 4 4 4
7 6 7 9 12 10 10 10 9 8 8 7 7 6 6 7 7 7 6 6 5 4 3 3 3 4 4 4 4 5 4 4 4 5 4 4 4 3 3 3 3 4 4 4
8 7 8 11 11 9 11 11 11 10 9 8 8 8 7 7 7 7 7 6 5 4 3 3 4 4 4 4 4 4 4 4 5 5 4 4 4 4 3 3 4 4 4 4
9 9 10 11 10 8 9 8 8 9 10 10 9 8 7 7 8 7 7 6 4 4 3 3 4 4 4 4 4 4 4 4 4 4 4 3 3 3 3 3 3 3 4 4
Wind_Direction
180 198 210 210 215 236 228 235 246 258 271 256 253 263 266 262 253 251 249 248 247 245 245 238 229 219 216 213 207 203 198 197 194 194 197 206 216 218 218 218 219 223 225 223
191 223 226 219 211 219 227 237 253 268 269 262 271 273 267 256 250 249 249 249 249 246 238 231 222 213 214 214 211 206 202 198 198 205 206 214 220 225 225 224 223 225 225 222
211 209 186 187 196 213 228 235 244 255 286 261 284 275 245 239 238 247 248 250 250 239 231 224 218 215 215 218 217 210 206 201 202 204 199 187 196 219 227 231 229 226 226 223
223 217 190 198 213 218 237 232 231 233 248 261 256 278 257 237 244 245 243 240 243 240 234 226 222 220 220 225 222 215 207 201 198 196 200 200 211 223 233 232 232 232 225 223
209 191 197 213 224 209 219 167 202 226 242 263 238 250 264 228 247 246 239 233 238 240 238 233 230 229 227 224 219 216 206 203 197 198 206 210 218 227 231 228 225 227 224 222
227 202 211 210 183 174 146 139 144 197 226 248 232 229 264 228 237 242 224 218 233 237 235 233 230 228 225 220 214 217 207 203 201 202 208 216 219 221 223 227 228 227 229 229
202 205 184 164 152 160 180 184 211 213 220 240 183 230 253 245 233 239 232 226 248 239 232 225 226 227 225 220 217 217 212 206 204 206 210 220 224 225 226 229 229 230 230 233
201 210 188 189 201 193 194 206 220 235 242 248 210 239 249 252 242 244 243 243 262 248 239 234 230 228 231 230 226 219 216 212 206 208 214 220 222 225 230 231 231 231 232 235
201 204 152 193 213 185 182 208 234 243 268 265 244 253 274 228 230 233 243 249 258 257 248 246 242 237 237 234 232 225 220 217 213 213 216 218 219 225 229 230 231 234 234 235
195 214 200 176 167 218 223 172 179 204 231 250 250 247 244 217 220 226 240 249 260 267 262 256 250 244 242 239 239 231 223 221 217 215 217 222 220 223 227 229 231 233 234 231
191 198 185 189 205 203 180 191 205 210 241 247 258 253 214 220 223 228 244 253 255 257 260 255 247 246 246 245 241 237 231 227 224 219 220 222 221 221 223 227 232 233 234 231
193 195 217 223 230 255 222 214 200 213 222 231 257 264 117 226 245 253 262 262 261 260 263 257 245 242 242 246 251 248 244 236 232 227 224 225 226 224 224 227 230 231 231 232
171 181 200 213 206 199 215 215 215 221 227 229 241 255 151 239 272 272 265 263 260 261 265 259 250 245 247 254 259 259 251 241 235 229 228 229 229 229 230 232 233 233 232 230
206 210 230 240 249 193 210 211 205 206 225 238 242 257 261 266 270 273 268 266 266 265 263 259 256 252 255 257 260 260 255 242 234 227 229 232 233 232 234 236 237 236 233 230
214 242 249 264 263 235 237 228 214 218 230 241 255 259 264 265 268 270 270 269 266 265 264 259 258 259 256 254 255 253 248 240 232 229 232 238 238 236 238 239 240 239 236 234
214 235 252 264 253 245 254 243 232 234 239 247 260 266 267 271 272 268 264 260 260 262 262 260 260 257 252 249 247 241 236 237 234 233 239 243 241 236 237 240 241 239 237 235
199 206 234 258 266 271 256 236 224 228 230 232 245 256 264 265 265 263 263 258 258 262 265 261 256 252 250 245 239 235 233 234 235 239 243 241 239 237 237 239 238 237 235 234
203 211 229 251 246 245 253 218 215 228 240 233 245 257 260 266 275 272 260 254 259 260 262 260 256 253 249 240 234 234 229 230 234 241 245 242 240 242 241 239 239 238 235 233
213 202 210 221 245 264 266 234 209 219 251 236 242 254 264 278 284 266 248 247 252 258 261 260 253 246 240 233 226 220 224 230 236 243 248 247 241 243 242 242 243 239 234 233
191 200 211 218 237 249 256 172 191 203 256 238 232 243 244 228 259 274 249 251 257 264 262 255 248 239 232 228 217 213 222 229 239 248 254 255 247 242 240 242 243 240 236 236
192 207 217 229 242 258 238 141 157 212 261 211 219 227 216 227 256 291 284 268 262 262 257 247 236 227 226 217 212 219 225 235 244 251 255 254 249 245 242 242 239 237 235 236
201 203 211 214 230 246 166 162 204 248 306 240 238 230 230 249 268 275 273 274 273 265 252 238 228 230 227 216 215 226 236 243 244 244 247 249 247 244 237 234 237 235 231 233
216 213 216 215 235 273 198 221 242 264 265 261 257 249 244 260 267 267 270 273 276 262 249 239 229 233 232 224 222 234 246 245 239 239 243 248 247 243 234 226 229 231 229 231
234 230 233 246 255 256 246 249 253 252 257 264 260 256 249 256 262 265 268 271 270 259 248 234 226 232 239 232 233 240 249 243 237 240 243 244 238 238 233 227 224 225 227 231
232 207 231 249 262 270 256 247 252 257 257 257 256 255 249 247 255 258 262 267 261 251 246 229 227 235 244 244 245 244 240 233 239 242 240 239 235 235 234 231 229 231 231 235
223 219 226 247 248 246 257 251 250 249 251 250 252 257 253 240 246 253 258 259 251 246 240 235 239 242 248 249 251 251 240 231 233 241 238 235 230 233 235 237 246 243 245 250
Height
1489 1489 1486 1485 1487 1486 1486 1486 1485 1487 1492 1492 1487 1484 1482 1483 1483 1482 1482 1482 1481 1481 1482 1482 1482 1483 1484 1485 1485 1486 1487 1488 1489 1490 1491 1492 1493 1493 1494 1494 1494 1494 1495 1495
1487 1485 1485 1487 1488 1489 1488 1488 1485 1488 1492 1490 1485 1481 1478 1478 1478 1478 1478 1477 1477 1477 1478 1478 1478 1479 1480 1481 1481 1482 1483 1484 1485 1486 1487 1488 1489 1490 1490 1490 1490 1491 1491 1491
1480 1482 1485 1487 1488 1488 1487 1486 1484 1486 1490 1489 1487 1473 1471 1471 1474 1474 1474 1474 1473 1473 1473 1474 1474 1475 1476 1477 1478 1478 1479 1480 1481 1483 1484 1484 1485 1485 1486 1486 1487 1487 1487 1487
1481 1483 1485 1485 1485 1485 1483 1485 1487 1489 1487 1481 1485 1473 1462 1465 1468 1469 1470 1470 1470 1470 1470 1471 1471 1472 1472 1473 1474 1475 1476 1477 1478 1479 1479 1480 1481 1481 1482 1482 1483 1483 1483 1484
1479 1482 1483 1483 1483 1484 1484 1488 1489 1488 1487 1485 1482 1481 1459 1463 1463 1462 1464 1466 1466 1467 1467 1468 1468 1468 1469 1470 1470 1471 1472 1473 1474 1475 1476 1477 1477 1478 1478 1479 1479 1479 1479 1479
1480 1483 1483 1482 1485 1486 1488 1489 1489 1488 1486 1482 1474 1474 1456 1455 1456 1457 1460 1463 1464 1464 1464 1465 1465 1466 1466 1467 1467 1468 1468 1469 1470 1471 1472 1473 1473 1473 1474 1475 1475 1475 1475 1475
1479 1481 1482 1483 1484 1487 1486 1484 1482 1480 1478 1468 1475 1472 1456 1451 1455 1457 1459 1461 1461 1462 1462 1462 1463 1463 1463 1463 1463 1464 1465 1465 1466 1467 1468 1469 1469 1470 1470 1470 1471 1471 1471 1471
1472 1473 1478 1480 1479 1479 1480 1478 1476 1471 1464 1460 1475 1465 1451 1454 1456 1458 1459 1459 1460 1460 1460 1460 1460 1460 1460 1460 1460 1461 1461 1462 1463 1463 1464 1465 1466 1466 1466 1467 1467 1468 1467 1467
1468 1470 1478 1479 1480 1479 1479 1478 1478 1478 1478 1472 1457 1455 1452 1453 1454 1455 1456 1457 1457 1457 1457 1457 1457 1458 1457 1457 1457 1457 1458 1459 1459 1460 1461 1461 1462 1462 1462 1463 1464 1464 1464 1463
1469 1472 1476 1479 1480 1480 1478 1478 1480 1476 1470 1459 1451 1451 1444 1447 1449 1451 1453 1454 1455 1455 1455 1455 1455 1455 1454 1454 1454 1454 1455 1455 1456 1457 1457 1458 1458 1458 1458 1459 1459 1459 1459 1459
1470 1472 1475 1476 1474 1471 1478 1479 1475 1472 1469 1459 1450 1442 1442 1445 1447 1450 1451 1452 1453 1453 1452 1452 1452 1452 1452 1451 1451 1451 1451 1452 1452 1453 1453 1454 1454 1454 1454 1454 1455 1455 1455 1455
1469 1469 1468 1469 1472 1473 1471 1469 1471 1468 1468 1466 1455 1445 1444 1446 1448 1449 1450 1451 1451 1451 1450 1450 1449 1449 1449 1448 1448 1448 1448 1448 1448 1449 1449 1449 1450 1450 1450 1450 1450 1450 1450 1450
1469 1470 1466 1465 1472 1475 1472 1470 1470 1470 1467 1462 1456 1445 1445 1446 1447 1448 1449 1449 1448 1448 1448 1447 1446 1446 1445 1445 1445 1445 1444 1444 1444 1444 1445 1445 1445 1445 1445 1445 1445 1445 1446 1446
1466 1466 1461 1453 1449 1459 1465 1467 1468 1468 1462 1455 1450 1441 1441 1443 1444 1445 1446 1446 1446 1446 1445 1444 1443 1443 1442 1442 1442 1441 1441 1441 1440 1440 1440 1441 1441 1441 1441 1441 1441 1441 1441 1441
1465 1462 1461 1458 1457 1458 1458 1458 1461 1461 1454 1451 1441 1442 1437 1439 1441 1441 1442 1442 1442 1442 1441 1440 1440 1439 1439 1438 1438 1437 1437 1437 1437 1436 1436 1436 1437 1436 1436 1436 1436 1436 1436 1436
1463 1462 1461 1459 1457 1457 1456 1452 1453 1453 1451 1448 1444 1439 1435 1437 1438 1438 1438 1438 1438 1437 1436 1436 1435 1435 1435 1434 1434 1433 1433 1433 1433 1432 1432 1432 1432 1432 1432 1432 1431 1431 1431 1431
1460 1461 1458 1451 1456 1455 1445 1439 1442 1444 1441 1441 1437 1431 1432 1433 1433 1433 1433 1433 1433 1432 1432 1431 1431 1431 1430 1430 1429 1429 1429 1429 1429 1428 1428 1428 1428 1428 1428 1427 1427 1426 1426 1426
1457 1457 1457 1453 1455 1448 1427 1432 1433 1434 1433 1434 1431 1429 1429 1430 1429 1429 1429 1429 1428 1427 1427 1427 1427 1426 1426 1426 1425 1425 1425 1425 1425 1424 1424 1424 1424 1424 1423 1423 1422 1421 1421 1421
1452 1453 1453 1451 1443 1430 1427 1430 1431 1432 1427 1426 1426 1425 1427 1427 1427 1424 1424 1424 1424 1423 1423 1423 1422 1422 1422 1422 1421 1421 1421 1421 1421 1420 1420 1420 1420 1419 1419 1418 1418 1417 1417 1417
1452 1451 1450 1448 1440 1428 1420 1427 1428 1430 1424 1420 1421 1422 1423 1425 1423 1419 1420 1420 1420 1419 1419 1419 1418 1418 1418 1418 1418 1417 1417 1417 1417 1416 1416 1416 1415 1415 1415 1414 1414 1413 1413 1413
1448 1448 1446 1442 1435 1421 1423 1427 1429 1426 1416 1417 1417 1418 1420 1420 1419 1418 1417 1416 1416 1415 1415 1415 1414 1414 1414 1414 1414 1414 1413 1413 1413 1413 1412 1412 1412 1411 1411 1410 1410 1410 1410 1409
1436 1438 1438 1436 1432 1421 1421 1424 1423 1415 1415 1415 1415 1415 1416 1416 1415 1415 1414 1413 1412 1412 1411 1411 1411 1411 1411 1410 1410 1410 1410 1410 1410 1409 1408 1408 1408 1408 1407 1407 1407 1407 1406 1406
1429 1426 1424 1424 1418 1414 1415 1414 1413 1413 1413 1412 1412 1412 1413 1412 1412 1411 1411 1410 1409 1409 1408 1408 1407 1407 1407 1407 1407 1406 1406 1406 1406 1405 1405 1405 1404 1404 1403 1403 1403 1403 1403 1402
1424 1424 1423 1420 1412 1411 1411 1410 1410 1410 1410 1409 1409 1409 1409 1408 1408 1408 1407 1406 1406 1405 1404 1404 1404 1403 1403 1403 1403 1403 1403 1403 1402 1401 1401 1401 1400 1400 1400 1400 1400 1399 1399 1399
1415 1419 1417 1413 1408 1408 1405 1405 1406 1406 1405 1405 1405 1405 1405 1404 1404 1404 1403 1402 1402 1401 1401 1401 1400 1399 1399 1400 1399 1399 1399 1399 1398 1398 1397 1397 1397 1397 1396 1396 1396 1396 1396 1395
1409 1410 1409 1402 1401 1402 1399 1400 1401 1401 1400 1401 1400 1400 1400 1400 1399 1399 1399 1398 1398 1398 1398 1397 1397 1396 1396 1396 1396 1396 1396 1395 1395 1394 1393 1393 1393 1393 1393 1393 1393 1392 1393 1392